www.pogodaiklimat.ru

Погода и климат >> Архив погоды >> Япония >> Нагоя


АРХИВ ПОГОДЫ в Нагоя

Время (UTC), дата Ветер
(напр.,м/с)
 
Видим.   Явления Облачность Т
(С)
Тd
(С)
f
(%)
Тe
(С)
Тes
(С)
Комфортность P
(гПа)
Po
(гПа)
Тmin
(С)
Tmax
(С)
R
(мм)
R24
(мм)
S
(см)
07 9.07 Ю 5 н/о н/о +24.9 +18.8 69 +30 +30 душно 1007.2 1000.8
08 9.07 Ю 4 н/о н/о +25.2 +18.4 66 +30 +30 душно 1007.0 1000.6
09 9.07 Ю 3 15 км 9/9
[Cu med, cong Ac As]
+24.5 +18.5 69 +29 +29 душно 1007.2 1000.8
10 9.07 Ю 3 н/о н/о +24.4 +18.8 71 +29 +29 душно 1007.5 1001.1
11 9.07 Ю 4 н/о н/о +23.9 +19.0 74 +29 +29 душно 1008.3 1001.8
12 9.07 Ю 3 15 км 10/8
[Cu med, cong Ac As]
+23.4 +18.3 73 +29 +29 душно 1008.6 1002.1 +26.5 0.0
13 9.07 Ю 3 н/о н/о +23.2 +18.5 75 +29 +29 душно 1009.0 1002.5
14 9.07 Ю 3 н/о н/о +22.9 +18.7 77 +29 +29 очень
душно
1009.1 1002.6
15 9.07 Ю 2 н/о н/о +22.8 +18.6 77 +29 +29 очень
душно
1008.9 1002.4
16 9.07 Ю 2 н/о н/о +22.7 +18.1 75 +28 +28 душно 1008.7 1002.2
17 9.07 ЮВ 3 н/о н/о +22.6 +18.0 75 +28 +28 душно 1008.6 1002.1
18 9.07 Ю 2 20 км 9/8
[Cu Sc Ac As]
+21.9 +18.1 79 +27 +27 душно 1008.5 1002.0
19 9.07 ЮВ 2 н/о н/о +22.0 +18.0 78 +27 +27 душно 1008.7 1002.2
20 9.07 Ю 2 н/о н/о +22.1 +17.5 75 +27 +27 душно 1009.0 1002.5
21 9.07 Ю 2 15 км 10/8
[Cu Sc Ac As]
+22.3 +17.7 75 +27 +27 душно 1009.7 1003.2
22 9.07 В 2 н/о н/о +21.7 +17.9 79 +26 +26 душно 1010.2 1003.7
23 9.07 СВ 3 н/о н/о +22.3 +18.9 81 +28 +28 душно 1010.4 1003.9
00 10.07 В 1 15 км {ливн. осадки} 10/8
[Cu Sc Ac As]
+22.7 +18.7 78 +28 +29 душно 1010.6 1004.1 +21.6 0.0
01 10.07 С 2 н/о н/о +23.7 +18.4 72 +28 +28 душно 1010.5 1004.0
02 10.07 СЗ 1 н/о н/о +25.7 +18.6 65 +31 +31 очень
душно
1010.4 1004.0
03 10.07 Ю 2 15 км {ливн. осадки} 9/6
[Cu Sc Ac As]
+26.9 +18.8 61 +32 +36 очень
душно
1010.1 1003.7
04 10.07 Ю 3 н/о н/о +25.8 +18.5 64 +31 +31 очень
душно
1010.2 1003.8
05 10.07 Ю 4 н/о н/о +26.9 +19.3 63 +32 +32 очень
душно
1010.2 1003.8
06 10.07 ЮЗ 4 20 км {ливн. осадки} 9/6
[Cu med, cong Ac trans Ci sp]
+27.3 +18.6 59 +32 +34 очень
душно
1010.4 1004.0 0.0
08 10.07 Ю 4 н/о н/о +25.7 +19.1 67 +31 +31 очень
душно
1010.7 1004.3
09 10.07 Ю 5 15 км 9/3
[Cu Sc Ac As Ci sp]
+25.2 +17.7 63 +29 +30 душно 1011.5 1005.1
10 10.07 Ю 4 н/о н/о +24.5 +18.2 68 +29 +29 душно 1011.9 1005.4
11 10.07 Ю 5 н/о н/о +24.3 +18.0 68 +29 +29 душно 1012.4 1005.9
12 10.07 Ю 4 20 км 9/1
[Cu Sc Ac As]
+23.9 +17.9 69 +28 +28 душно 1012.9 1006.4 +27.7 0.0
13 10.07 Ю 5 н/о н/о +23.3 +18.0 72 +29 +29 душно 1013.0 1006.5
14 10.07 Ю 4 н/о н/о +22.9 +18.2 75 +29 +29 очень
душно
1013.2 1006.7
15 10.07 ЮВ 3 н/о н/о +22.5 +18.3 77 +28 +28 душно 1013.2 1006.7
16 10.07 ЮВ 3 н/о н/о +22.4 +18.4 78 +28 +28 душно 1013.0 1006.5
17 10.07 ЮВ 3 н/о н/о +22.3 +18.5 79 +28 +28 душно 1012.9 1006.4
18 10.07 ЮВ 3 15 км в посл. час дождь 10/3
[Sc Ac As]
+22.1 +18.3 79 +27 +27 душно 1012.8 1006.3 0.0
19 10.07 ЮВ 2 н/о н/о +22.0 +18.2 79 +27 +27 душно 1012.9 1006.4
20 10.07 В 2 н/о н/о +21.7 +18.5 82 +26 +26 душно 1013.0 1006.5
21 10.07 СВ 1 10 км слаб. дождь 10/3
[Sc As op]
+21.7 +18.7 83 +27 +27 душно 1013.5 1007.0
22 10.07 СВ 1 н/о н/о +22.0 +18.8 82 +27 +27 душно 1013.6 1007.1
23 10.07 Ю 2 н/о н/о +21.1 +19.6 91 +26 +26 душно 1013.7 1007.1
00 11.07 СВ 2 8000 м слаб. дождь 10/1
[Cu med, cong As op]
+21.4 +19.5 89 +26 +29 душно 1013.1 1006.6 +20.8 1
01 11.07 С 1 н/о н/о +21.6 +19.4 87 +27 +27 душно 1012.9 1006.4
02 11.07 ЮВ 2 н/о н/о +22.0 +20.8 93 +28 +28 душно 1012.6 1006.1
03 11.07 ЮВ 4 3000 м ливневой дождь 10/10
[Cu Sc]
+20.9 +20.2 96 +26 +26 душно 1012.5 1005.9
04 11.07 ЮВ 3 н/о н/о +20.4 +20.1 98 +25 +25 комфорт 1011.9 1005.3
05 11.07 ЮВ 4 н/о н/о +20.7 +20.2 97 +25 +25 комфорт 1011.3 1004.7
06 11.07 ЮВ 2 4000 м слаб. ливневой дождь 10/9
[Cu Sc Ac As]
+20.7 +20.4 98 +26 +26 душно 1010.9 1004.4 14
07 11.07 ЮВ 3 н/о н/о +20.8 +20.5 98 +26 +26 душно 1010.5 1004.0
08 11.07 ЮВ 3 н/о н/о +20.6 +20.4 99 +26 +26 душно 1010.2 1003.7
09 11.07 Ю 2 15 км в посл. час ливневой дождь 9/9
[Cu Sc Ac As]
+20.7 +20.4 98 +26 +26 душно 1010.4 1003.9
10 11.07 ЮЗ 1 н/о н/о +20.1 +19.1 94 +25 +25 комфорт 1010.6 1004.0
11 11.07 С 1 н/о н/о +20.3 +20.0 98 +25 +25 комфорт 1010.4 1003.8
12 11.07 СЗ 2 5000 м слаб. дождь 10/9 100 м
[Frnb As op]
+20.2 +20.1 99 +25 +25 комфорт 1010.3 1003.7 +22.0 22
13 11.07 С 3 н/о н/о +20.1 +20.1 100 +24 +24 комфорт 1009.7 1003.1
14 11.07 С 3 н/о н/о +19.9 +19.9 100 +24 +24 комфорт 1009.2 1002.6
15 11.07 СЗ 3 н/о н/о +20.0 +20.0 100 +24 +24 комфорт 1008.7 1002.1
16 11.07 СЗ 3 н/о н/о +19.9 +19.9 100 +24 +24 комфорт 1008.4 1001.8
17 11.07 СЗ 3 н/о н/о +19.9 +19.9 100 +24 +24 комфорт 1008.1 1001.5
18 11.07 С 2 3000 м слаб. дождь 10/9 100 м
[Frnb As op]
+20.1 +20.1 100 +24 +24 комфорт 1007.5 1001.0 7
19 11.07 С 3 н/о н/о +20.0 +20.0 100 +24 +24 комфорт 1007.5 1001.0
20 11.07 С 2 н/о н/о +20.2 +20.2 100 +25 +25 комфорт 1007.6 1001.1
21 11.07 С 2 5000 м слаб. дождь 10/8 100 м
[Frnb As op]
+20.2 +20.1 99 +25 +25 комфорт 1007.3 1000.8
22 11.07 СЗ 2 н/о н/о +20.6 +20.3 98 +26 +26 душно 1007.5 1001.0
23 11.07 С 2 н/о н/о +21.3 +20.6 96 +27 +27 душно 1007.4 1000.9
00 12.07 С 1 15 км {дождь} 9/4
[Cu Sc Ac As Ci sp]
+22.7 +20.2 86 +29 +35 очень
душно
1007.3 1000.8 +19.8 9
01 12.07 СВ 2 н/о н/о +23.8 +20.2 80 +29 +29 душно 1006.7 1000.3
02 12.07 С 1 н/о н/о +25.1 +21.0 78 +32 +32 очень
душно
1006.4 1000.0
03 12.07 ЮЗ 1 15 км 9/8
[Cu med, cong Ac As Ci sp]
+26.2 +21.4 75 +33 +37 очень
душно
1005.9 999.5
04 12.07 ЮЗ 2 н/о н/о +26.8 +21.3 72 +34 +34 очень
душно
1005.0 998.6
06 12.07 СЗ 2 20 км 8/3
[Cu med, cong Ac trans Ci sp]
+29.2 +20.9 61 +36 +42 очень
душно
1003.5 997.2
07 12.07 СЗ 3 н/о н/о +29.5 +20.1 57 +36 +36 очень
душно
1003.4 997.1
08 12.07 З 4 н/о н/о +29.0 +20.5 60 +36 +36 очень
душно
1003.3 997.0
09 12.07 СЗ 4 20 км 8/8
[Cu med, cong Ac trans Ci fib]
+28.2 +21.3 66 +36 +36 очень
душно
1003.3 997.0
10 12.07 СЗ 4 н/о н/о +27.3 +20.9 68 +34 +34 очень
душно
1003.9 997.6
11 12.07 СЗ 4 н/о н/о +26.5 +19.9 67 +32 +32 очень
душно
1004.3 997.9
12 12.07 СЗ 4 20 км 9/8
[Cu med, cong Ac As]
+25.7 +19.6 69 +31 +31 очень
душно
1004.9 998.5 +30.3
13 12.07 СЗ 3 н/о н/о +25.4 +19.3 69 +31 +31 очень
душно
1005.2 998.8
14 12.07 СЗ 4 н/о н/о +24.8 +19.4 72 +30 +30 душно 1004.9 998.5
15 12.07 СЗ 4 н/о н/о +24.8 +19.2 71 +30 +30 душно 1004.9 998.5
16 12.07 С 3 н/о н/о +24.4 +19.3 73 +29 +29 душно 1004.6 998.2
17 12.07 С 2 н/о н/о +24.0 +19.3 75 +29 +29 душно 1004.5 998.1
18 12.07 СЗ 3 20 км {ливн. осадки} 9/3
[Cu hum Ac trans Ci sp]
+23.6 +19.3 77 +29 +29 душно 1004.5 998.1 0.0
19 12.07 С 2 н/о н/о +23.5 +19.5 78 +29 +29 душно 1004.8 998.4
20 12.07 С 2 н/о н/о +23.2 +19.2 78 +30 +30 очень
душно
1004.5 998.1
21 12.07 С 2 25 км 9/1
[Cu hum Ac As]
+23.3 +19.7 80 +30 +31 очень
душно
1004.8 998.4
22 12.07 С 1 н/о н/о +23.7 +19.4 77 +29 +29 душно 1004.8 998.4
23 12.07 СЗ 2 н/о н/о +24.0 +19.7 77 +29 +29 душно 1004.6 998.2
00 13.07 З 2 25 км слаб. ливневой дождь 9/1
[Cu hum Ac As Ci sp]
+24.8 +19.9 74 +30 +37 душно 1004.5 998.1 +22.9 0.0
01 13.07 СЗ 2 н/о н/о +25.9 +18.6 64 +31 +31 очень
душно
1004.7 998.3
02 13.07 З 2 н/о н/о +26.6 +19.0 63 +32 +32 очень
душно
1004.6 998.2
03 13.07 ЮЗ 3 20 км слаб. ливневой дождь 10/1
[Cu med, cong Ac As Ci sp]
+26.8 +19.2 63 +32 +41 очень
душно
1004.4 998.0
04 13.07 Ю 3 н/о н/о +26.3 +20.4 70 +33 +33 очень
душно
1004.1 997.7
05 13.07 Ю 2 н/о н/о +26.3 +19.7 67 +32 +32 очень
душно
1004.0 997.6
06 13.07 Ю 2 10 км слаб. дождь 10/3
[Cu Sc As op]
+25.9 +20.7 73 +32 +34 очень
душно
1003.8 997.4 0.0
07 13.07 ЮВ 3 н/о н/о +25.6 +20.6 74 +32 +32 очень
душно
1003.7 997.3
08 13.07 Ю 4 н/о н/о +24.6 +19.7 74 +30 +30 очень
душно
1004.1 997.7
09 13.07 Ю 3 20 км слаб. дождь 10/8
[Cu Sc As op]
+24.0 +18.2 70 +28 +28 душно 1003.9 997.5
10 13.07 Ю 2 н/о н/о +23.7 +19.0 75 +28 +28 душно 1003.7 997.3
11 13.07 В 2 н/о н/о +22.6 +20.3 87 +29 +29 очень
душно
1004.2 997.7
12 13.07 В 2 15 км слаб. дождь 10/8
[Sc As op]
+21.9 +20.7 93 +28 +28 душно 1003.9 997.4 +27.6 1
13 13.07 В 2 н/о н/о +21.8 +20.5 92 +28 +28 душно 1003.8 997.3
14 13.07 В 2 н/о н/о +20.9 +20.6 98 +27 +27 душно 1003.8 997.3
15 13.07 СВ 2 н/о н/о +20.8 +20.6 99 +26 +26 душно 1002.9 996.4
16 13.07 СВ 2 н/о н/о +20.8 +20.6 99 +27 +27 душно 1002.0 995.5
17 13.07 С 2 н/о н/о +20.6 +20.3 98 +26 +26 душно 1001.3 994.8
18 13.07 С 3 10 км слаб. дождь 10/8
[Frnb As op]
+20.7 +20.2 97 +26 +26 душно 1000.3 993.8 23
19 13.07 С 2 н/о н/о +20.7 +20.2 97 +26 +26 душно 1000.0 993.5
20 13.07 СЗ 3 н/о н/о +20.6 +20.6 100 +26 +26 душно 1000.2 993.7
21 13.07 С 3 7000 м слаб. дождь 10/8 100 м
[Frnb As op]
+20.5 +20.3 99 +25 +25 комфорт 1000.2 993.7
22 13.07 С 2 н/о н/о +20.6 +20.4 99 +26 +26 душно 1000.5 994.0
23 13.07 С 3 н/о н/о +21.5 +20.8 96 +27 +27 душно 1000.5 994.0
00 14.07 С 2 15 км {дождь} 10/8
[Cu Sc Ac As]
+22.4 +20.9 91 +29 +30 очень
душно
1000.2 993.8 +20.4 25
01 14.07 СЗ 1 н/о н/о +23.9 +21.4 86 +30 +30 очень
душно
1000.6 994.2
02 14.07 З 2 н/о н/о +24.9 +21.6 82 +32 +32 очень
душно
1001.1 994.7
03 14.07 СЗ 2 20 км 9/8
[Cu med, cong Ac As]
+26.3 +21.5 75 +34 +36 очень
душно
1000.5 994.2
04 14.07 С 1 н/о н/о +26.3 +20.4 70 +33 +33 очень
душно
1000.5 994.2
05 14.07 Ю 1 н/о н/о +26.7 +20.8 70 +33 +33 очень
душно
1000.4 994.1
06 14.07 Ю 3 20 км слаб. ливневой дождь 10/8
[Cu Sc Ac As]
+25.9 +22.2 80 +34 +34 очень
душно
999.7 993.4 0.0
07 14.07 Ю 2 н/о н/о +26.5 +22.4 78 +35 +35 очень
душно
1000.0 993.7
08 14.07 ЮЗ 3 н/о н/о +25.7 +22.4 82 +34 +34 очень
душно
1000.8 994.4
09 14.07 ЮЗ 3 15 км слаб. ливневой дождь 10/5
[Cu Sc Ac As]
+24.9 +22.4 86 +33 +33 очень
душно
1001.1 994.7
10 14.07 З 1 н/о н/о +24.3 +22.7 91 +32 +32 очень
душно
1001.4 995.0
11 14.07 С 2 н/о н/о +24.0 +23.0 94 +32 +32 очень
душно
1001.8 995.4
12 14.07 С 1 10 км в посл. час дождь {ливн. осадки} 10/10
[Cu Sc]
+24.1 +22.9 93 +32 +32 очень
душно
1002.2 995.8 +27.1 1
13 14.07 З 1 н/о н/о +24.1 +22.9 93 +32 +32 очень
душно
1002.5 996.1
14 14.07 Ю 2 н/о н/о +23.6 +23.3 98 +32 +32 очень
душно
1002.6 996.2
15 14.07 ЮЗ 1 н/о н/о +23.4 +23.2 99 +33 +33 очень
душно
1002.8 996.4
16 14.07 СВ 1 н/о н/о +22.9 +22.7 99 +31 +31 очень
душно
1002.6 996.2
17 14.07 СЗ 2 н/о н/о +22.5 +22.5 100 +30 +30 очень
душно
1002.9 996.4
18 14.07 СЗ 2 5000 м ливневой дождь 10/10
[Cu med, cong]
+22.3 +22.3 100 +30 +30 очень
душно
1002.8 996.3 13
19 14.07 СЗ 1 н/о н/о +22.2 +22.2 100 +30 +30 очень
душно
1003.1 996.6
20 14.07 С 2 н/о н/о +22.5 +22.3 99 +30 +30 очень
душно
1003.0 996.5
21 14.07 С 2 10 км {ливн. осадки} 9/9
[Cu Sc]
+22.7 +22.4 98 +31 +31 очень
душно
1003.7 997.2
22 14.07 С 2 н/о н/о +22.9 +21.9 94 +31 +31 очень
душно
1004.0 997.6
23 14.07 СЗ 1 н/о н/о +23.3 +22.1 93 +32 +32 очень
душно
1004.7 998.3
00 15.07 СЗ 2 10 км в посл. час ливневой дождь 10/3
[Cu Sc]
+24.5 +22.2 87 +32 +37 очень
душно
1005.2 998.8 +22.2 14
01 15.07 В 1 н/о н/о +25.2 +21.7 81 +32 +32 очень
душно
1005.5 999.1
02 15.07 ЮВ 3 н/о н/о +25.4 +22.7 85 +33 +33 очень
душно
1005.4 999.0
03 15.07 Ю 4 15 км в посл. час ливневой дождь 10/10
[Cu Sc]
+26.3 +22.8 81 +35 +35 очень
душно
1005.3 998.9
04 15.07 Ю 4 н/о н/о +26.7 +22.3 77 +35 +35 очень
душно
1005.5 999.1
05 15.07 Ю 5 н/о н/о +25.2 +22.5 85 +33 +33 очень
душно
1005.7 999.3
06 15.07 Ю 5 10 км {ливн. осадки} 9/9
[Cu Sc Ac As Ci sp]
+27.1 +22.7 77 +36 +37 очень
душно
1005.9 999.5 0.0
07 15.07 Ю 3 н/о н/о +26.6 +22.2 77 +35 +35 очень
душно
1006.0 999.6
08 15.07 Ю 4 н/о н/о +25.7 +22.2 81 +33 +33 очень
душно
1006.5 1000.1
09 15.07 Ю 4 20 км в посл. час ливневой дождь 10/4
[Cu Sc Ac As]
+24.9 +22.4 86 +33 +33 очень
душно
1007.1 1000.7
10 15.07 Ю 3 н/о н/о +24.8 +22.5 87 +32 +32 очень
душно
1007.5 1001.1
11 15.07 Ю 3 н/о н/о +24.5 +22.2 87 +32 +32 очень
душно
1007.9 1001.5
12 15.07 Ю 3 15 км слаб. ливневой дождь 10/8
[Cu med, cong Ac As]
+23.7 +22.7 94 +31 +31 очень
душно
1008.8 1002.3 +27.7 0.0
13 15.07 Ю 2 н/о н/о +23.3 +22.6 96 +32 +32 очень
душно
1009.0 1002.5
14 15.07 Ю 3 н/о н/о +23.3 +22.3 94 +32 +32 очень
душно
1009.2 1002.7
15 15.07 ЮЗ 2 н/о н/о +23.2 +22.4 95 +32 +32 очень
душно
1009.5 1003.0
16 15.07 ЮЗ 3 н/о н/о +22.6 +22.6 100 +31 +31 очень
душно
1009.3 1002.8
17 15.07 ЮЗ 2 н/о н/о +22.5 +22.5 100 +30 +30 очень
душно
1009.2 1002.7
18 15.07 Ю 1 2000 м слаб. ливневой дождь 10/10
[Cu Sc]
+22.6 +22.6 100 +31 +31 очень
душно
1009.5 1003.0 7
19 15.07 ЮЗ 2 н/о н/о +22.5 +22.5 100 +30 +30 очень
душно
1009.9 1003.4
20 15.07 ЮЗ 3 н/о н/о +22.5 +22.5 100 +30 +30 очень
душно
1010.2 1003.7
21 15.07 З 2 3000 м в посл. час ливневой дождь 10/10
[Cu med, cong]
+22.6 +22.6 100 +31 +31 очень
душно
1010.8 1004.3
22 15.07 ЮЗ 2 н/о н/о +22.8 +22.8 100 +31 +31 очень
душно
1011.1 1004.6
00 16.07 Ю 2 15 км слаб. ливневой дождь 10/10
[Cu med, cong]
+23.3 +22.6 96 +32 +32 очень
душно
1011.6 1005.1 +22.4 7
01 16.07 ЮЗ 3 н/о н/о +23.9 +22.7 93 +31 +31 очень
душно
1011.9 1005.4
02 16.07 ЮЗ 4 н/о н/о +24.7 +22.6 88 +32 +32 очень
душно
1011.8 1005.3
03 16.07 Ю 2 15 км в посл. час ливневой дождь 9/9
[Cu med, cong Ac As]
+24.5 +22.2 87 +32 +34 очень
душно
1011.5 1005.0
04 16.07 Ю 3 н/о н/о +25.5 +22.0 81 +33 +33 очень
душно
1011.3 1004.9
05 16.07 ЮЗ 2 н/о н/о +26.7 +22.8 79 +35 +35 очень
душно
1011.3 1004.9

 

Местоположение метеостанции Нагоя (Япония): широта 35.17 долгота 136.96 высота над уровнем моря 56 м.

В архиве по умолчанию представлена погода в Нагоя за последнюю неделю. Архивные данные за месяц целиком и за предыдущие месяцы, начиная с января 2011 года, Вы можете получить, выбрав интересующий диапазон дат из раскрывающегося списка и нажав кнопку "Ввод!".


*Определитесь, кто Вы:
робот инопланетянин человек

Внимание! Время в таблицах - всемирное. Для получения местного времени необходимо прибавить поправку, которая равна 9 ч.

Смотрите также архив погоды в соседних городах и на ближайших метеорологических станциях:

Погода в Гифу (Япония) (31 км)
Погода в Йоккаити (Япония) (44 км)
Погода в Ирако (Япония) (61 км)
Погода в Цу (Япония) (64 км)
Погода в Хиконе (Япония) (66 км)
Погода в Хамамацу (Япония) (85 км)
Погода в Уэно (Япония) (86 км)
Погода в Ииде (Япония) (86 км)
Погода в Цуруге (Япония) (98 км)
Погода в Такаяме (Япония) (112 км)

Пояснения к столбцам:

Ветер - указаны скорость ветра в м/с - средняя за 10 мин, порывы в срок и между сроками (в фигурных скобках) и направление, откуда дует ветер: С - северный, СВ - северо-восточный, В - восточный, ЮВ - юго-восточный, Ю - южный, ЮЗ - юго-западный, З - западный, СЗ - северо-западный.
Видимость - горизонтальная дальность видимости в метрах или километрах. При видимости от 1 до 10 км при отсутствии осадков обычно наблюдается дымка, при ухудшении видимости до 1 км и менее - туман. В сухую погоду видимость может ухудшаться дымом, пылью или мглою.
Явления - указаны атмосферные явления, наблюдавшиеся в срок или в последний час перед сроком; фигурными скобками обозначены явления, наблюдавшиеся между сроками (за 1-3 часа до срока); квадратными скобками обозначены град или гололедные отложения с указанием их диаметра в мм.
Облачность - указаны через наклонную черту общая и нижняя облачность в баллах и высота нижней границы облаков в метрах; квадратными скобками обозначены формы облаков: Ci - перистые, Cs - перисто-слоистые, Cc - перисто-кучевые, Ac - высококучевые, As - высокослоистые, Sc - слоисто-кучевые, Ns - слоисто-дождевые, Cu - кучевые, Cb - кучево-дождевые. Подробнее классификацию облаков см. в Атласе облаков (PDF).
T - Температура воздуха - температура, измеренная на высоте 2 м над землей.
Td - Температура точки росы - температура, при понижении до которой содержащийся в воздухе водяной пар достигнет насыщения.
f - Относительная влажность воздуха - влажноcть воздуха, измеренная на высоте 2 м над землей.
Te - Эффективная температура - температура, которую ощущает одетый по сезону человек в тени. Характеристика душности погоды. При расчете учитывается влияние влажности воздуха и скорости ветра на теплоощущения человека.
Tes - Эффективная температура на солнце - температура, которую ощущает человек, с поправкой на солнечный нагрев. Характеристика знойности погоды. Зависит от высоты солнца над горизонтом, облачности и скорости ветра. Ночью, в пасмурную погоду, а также при ветре 12 м/с и более поправка равна нулю.
P - Атмосферное давление - приведенное к уровню моря атмосферное давление.
Po - Атмосферное давление - измеренное на уровне метеостанции атмосферное давление.
Tmin - Минимальная температура - минимум температуры воздуха на высоте 2 м над землей.
Tmax - Максимальная температура - максимум температуры воздуха на высоте 2 м над землей.
R - Количество осадков - Количество выпавших осадков за период времени, мм. При наведении курсора мыши на число - период времени, за который выпало указанное количество осадков.
R24 - Количество осадков - Количество выпавших осадков за 24 часа, мм.
S - Снежный покров - Высота снежного покрова, см. При наведении курсора мыши на число - состояние снежного покрова и степень покрытия местности в баллах.